Simultaneous Nadir Overpasses (SNOs) Predictions

Prediction of SNOs between AQUA and METOP-C Satellite Orbit:

Table of predicted SNOs for the next 14.0 days since TLE Epoch: 5/13/2023
Index Date (AQUA) Time (AQUA) Lat,Lon (AQUA) SZA (AQUA ) Date (METOP-C) Time (METOP-C) Lat,Lon (METOP-C) SZA (METOP-C ) Distance(km) Time Diff (sec)
1 05/15/2023 07:22:12 -74.13,-114.11 124.77 05/15/2023 07:21:02 -74.03,-115.61 124.84 47.04 70
2 05/15/2023 08:11:44 74.47, 52.73 55.57 05/15/2023 08:11:34 74.46, 52.80 55.57 2.15 10
3 05/15/2023 09:01:09 -74.52,-139.76 124.38 05/15/2023 09:02:14 -74.50,-139.77 124.41 2.96 65
4 05/18/2023 01:15:08 -74.41, -22.97 125.11 05/18/2023 01:13:54 -74.37, -23.01 125.14 4.91 74
5 05/18/2023 02:04:34 74.44, 144.60 54.92 05/18/2023 02:04:33 74.45, 144.52 54.93 2.51 1
6 05/18/2023 02:54:00 -74.55, -48.01 124.98 05/18/2023 02:55:12 -74.54, -47.90 124.99 3.58 72
7 05/20/2023 19:07:56 -74.41, 68.87 125.70 05/20/2023 19:06:51 -74.41, 68.83 125.70 1.14 65
8 05/20/2023 19:57:23 74.49,-123.69 54.38 05/20/2023 19:57:30 74.47,-123.66 54.36 2.44 7
9 05/20/2023 20:46:54 -74.85, 43.05 125.25 05/20/2023 20:48:03 -74.87, 44.73 125.27 48.81 69
10 05/23/2023 13:00:44 -74.42, 160.67 126.23 05/23/2023 12:59:49 -74.43, 160.65 126.22 1.17 55
11 05/23/2023 13:50:11 74.51, -31.90 53.86 05/23/2023 13:50:28 74.49, -31.87 53.83 2.48 17
12 05/26/2023 06:53:31 -74.45,-107.57 126.70 05/26/2023 06:52:47 -74.44,-107.56 126.71 1.10 44
13 05/26/2023 07:42:57 74.49, 59.98 53.34 05/26/2023 07:43:26 74.49, 59.90 53.34 2.57 29



Historial Predications of SNOs between AQUA and METOP-C
